| time (UTC) | temp C | wind direction | speed KPH | gust KPH | rain 1hr cm | rain 24hr cm | rain mn cm | humidity % | barometer mb |
| 20260503214503 | 27 | 344 | 1.6 | 14.5 | 0.00 | 0.00 | 0.00 | 8 | 1017.9 |
| 20260503213603 | 26 | 345 | 3.2 | 16.1 | 0.00 | 0.00 | 0.00 | 8 | 1017.9 |
| 20260503212703 | 26 | 267 | 3.2 | 17.7 | 0.00 | 0.00 | 0.00 | 8 | 1017.9 |
| 20260503211824 | 26 | 286 | 6.4 | 25.7 | 0.00 | 0.00 | 0.00 | 8 | 1017.9 |
| 20260503210903 | 26 | 215 | 4.8 | 19.3 | 0.00 | 0.00 | 0.00 | 9 | 1017.9 |
| 20260503210003 | 26 | 276 | 6.4 | 19.3 | 0.00 | 0.00 | 0.00 | 8 | 1017.9 |
| 20260503205403 | 26 | 275 | 4.8 | 30.6 | 0.00 | 0.00 | 0.00 | 9 | 1017.9 |
| 20260503204524 | 25 | 59 | 3.2 | 11.3 | 0.00 | 0.00 | 0.00 | 9 | 1017.9 |
| 20260503203624 | 25 | 82 | 8.0 | 17.7 | 0.00 | 0.00 | 0.00 | 11 | 1017.9 |
| 20260503202703 | 23 | 182 | 4.8 | 17.7 | 0.00 | 0.00 | 0.00 | 16 | 1017.9 |
| 20260503201803 | 23 | 74 | 1.6 | 11.3 | 0.00 | 0.00 | 0.00 | 16 | 1017.9 |
| 20260503200903 | 23 | 69 | 3.2 | 14.5 | 0.00 | 0.00 | 0.00 | 17 | 1017.9 |
| 20260503200003 | 22 | 59 | 1.6 | 8.0 | 0.00 | 0.00 | 0.00 | 18 | 1017.9 |
| 20260503195403 | 22 | 59 | 3.2 | 9.7 | 0.00 | 0.00 | 0.00 | 18 | 1017.9 |
| 20260503194503 | 22 | 66 | 4.8 | 16.1 | 0.00 | 0.00 | 0.00 | 19 | 1017.9 |
| 20260503193603 | 22 | 77 | 1.6 | 11.3 | 0.00 | 0.00 | 0.00 | 19 | 1017.9 |
| 20260503192703 | 22 | 80 | 4.8 | 14.5 | 0.00 | 0.00 | 0.00 | 18 | 1017.9 |
| 20260503191803 | 23 | 62 | 4.8 | 16.1 | 0.00 | 0.00 | 0.00 | 18 | 1017.9 |
| 20260503190903 | 23 | 56 | 4.8 | 17.7 | 0.00 | 0.00 | 0.00 | 17 | 1017.9 |
| 20260503190003 | 24 | 21 | 4.8 | 12.9 | 0.00 | 0.00 | 0.00 | 16 | 1017.9 |
| 20260503185403 | 24 | 13 | 6.4 | 16.1 | 0.00 | 0.00 | 0.00 | 16 | 1017.9 |
| 20260503184524 | 24 | 6 | 6.4 | 16.1 | 0.00 | 0.00 | 0.00 | 17 | 1017.9 |
| 20260503183624 | 23 | 8 | 6.4 | 16.1 | 0.00 | 0.00 | 0.00 | 16 | 1017.9 |
| 20260503182703 | 23 | 1 | 4.8 | 14.5 | 0.00 | 0.00 | 0.00 | 16 | 1017.9 |
| 20260503181803 | 22 | 44 | 6.4 | 14.5 | 0.00 | 0.00 | 0.00 | 17 | 1017.9 |
| 20260503180903 | 22 | 33 | 6.4 | 17.7 | 0.00 | 0.00 | 0.00 | 17 | 1017.9 |
| 20260503180003 | 22 | 52 | 6.4 | 12.9 | 0.00 | 0.00 | 0.00 | 17 | 1017.9 |
| 20260503175403 | 22 | 19 | 3.2 | 9.7 | 0.00 | 0.00 | 0.00 | 17 | 1017.9 |
| 20260503174524 | 22 | 3 | 4.8 | 14.5 | 0.00 | 0.00 | 0.00 | 18 | 1017.9 |
| 20260503173624 | 22 | 11 | 4.8 | 14.5 | 0.00 | 0.00 | 0.00 | 19 | 1017.9 |
| 20260503172703 | 22 | 53 | 6.4 | 14.5 | 0.00 | 0.00 | 0.00 | 20 | 1017.9 |
| 20260503171824 | 21 | 64 | 3.2 | 9.7 | 0.00 | 0.00 | 0.00 | 21 | 1017.9 |
| 20260503170903 | 21 | 70 | 4.8 | 12.9 | 0.00 | 0.00 | 0.00 | 21 | 1017.9 |
| 20260503150903 | 15 | 65 | 3.2 | 9.7 | 0.00 | 0.00 | 0.00 | 32 | 1017.9 |
| 20260503130903 | 9 | 244 | 0.0 | 1.6 | 0.00 | 0.00 | 0.00 | 40 | 1017.9 |
| 20260503080903 | 10 | 0 | 0.0 | 0.0 | 0.00 | 0.00 | 0.00 | 39 | 1017.9 |
| 20260503072703 | 11 | 0 | 0.0 | 0.0 | 0.00 | 0.00 | 0.00 | 38 | 1017.9 |
| 20260503071803 | 11 | 0 | 0.0 | 0.0 | 0.00 | 0.00 | 0.00 | 37 | 1017.9 |
| 20260503070903 | 11 | 0 | 0.0 | 0.0 | 0.00 | 0.00 | 0.00 | 36 | 1017.9 |
| 20260503054503 | 16 | 258 | 4.8 | 14.5 | 0.00 | 0.00 | 0.00 | 19 | 1017.9 |
| 20260503053603 | 16 | 239 | 4.8 | 12.9 | 0.00 | 0.00 | 0.00 | 19 | 1017.9 |
| 20260503052703 | 16 | 245 | 6.4 | 16.1 | 0.00 | 0.00 | 0.00 | 19 | 1017.9 |
| 20260503051803 | 16 | 242 | 6.4 | 12.9 | 0.00 | 0.00 | 0.00 | 19 | 1017.9 |
| 20260503050903 | 16 | 247 | 6.4 | 16.1 | 0.00 | 0.00 | 0.00 | 20 | 1017.9 |
| 20260503050003 | 16 | 249 | 4.8 | 12.9 | 0.00 | 0.00 | 0.00 | 20 | 1017.9 |
| 20260503045403 | 16 | 246 | 4.8 | 12.9 | 0.00 | 0.00 | 0.00 | 20 | 1017.9 |
| 20260503044503 | 17 | 243 | 3.2 | 12.9 | 0.00 | 0.00 | 0.00 | 21 | 1017.9 |
| 20260503043603 | 17 | 245 | 4.8 | 11.3 | 0.00 | 0.00 | 0.00 | 21 | 1017.9 |
| 20260503042703 | 17 | 246 | 4.8 | 11.3 | 0.00 | 0.00 | 0.00 | 20 | 1017.9 |
| 20260503041803 | 17 | 246 | 3.2 | 8.0 | 0.00 | 0.00 | 0.00 | 20 | 1017.9 |
| 20260503040903 | 17 | 248 | 4.8 | 11.3 | 0.00 | 0.00 | 0.00 | 20 | 1017.9 |
| 20260503040003 | 17 | 250 | 4.8 | 12.9 | 0.00 | 0.00 | 0.00 | 19 | 1017.9 |
| 20260503035403 | 17 | 251 | 4.8 | 11.3 | 0.00 | 0.00 | 0.00 | 19 | 1017.9 |
| 20260503034503 | 17 | 252 | 3.2 | 8.0 | 0.00 | 0.00 | 0.00 | 18 | 1017.9 |
| 20260503033624 | 18 | 269 | 4.8 | 12.9 | 0.00 | 0.00 | 0.00 | 18 | 1017.9 |
| 20260503032703 | 18 | 291 | 3.2 | 11.3 | 0.00 | 0.00 | 0.00 | 17 | 1017.9 |
| 20260503031803 | 18 | 293 | 4.8 | 12.9 | 0.00 | 0.00 | 0.00 | 17 | 1017.9 |
| 20260503030924 | 18 | 294 | 3.2 | 8.0 | 0.00 | 0.00 | 0.00 | 17 | 1017.9 |
| 20260503030003 | 18 | 296 | 1.6 | 6.4 | 0.00 | 0.00 | 0.00 | 18 | 1017.9 |
| 20260503025403 | 18 | 297 | 1.6 | 8.0 | 0.00 | 0.00 | 0.00 | 18 | 1017.9 |
| 20260503024503 | 18 | 297 | 0.0 | 4.8 | 0.00 | 0.00 | 0.00 | 18 | 1017.9 |
| 20260503023603 | 18 | 0 | 0.0 | 0.0 | 0.00 | 0.00 | 0.00 | 19 | 1017.9 |
| 20260503022703 | 18 | 0 | 0.0 | 0.0 | 0.00 | 0.00 | 0.00 | 19 | 1017.9 |
| 20260503021803 | 19 | 0 | 0.0 | 0.0 | 0.00 | 0.00 | 0.00 | 18 | 1017.9 |
| 20260503020924 | 20 | 0 | 0.0 | 0.0 | 0.00 | 0.00 | 0.00 | 17 | 1017.9 |
| 20260503020003 | 20 | 297 | 0.0 | 6.4 | 0.00 | 0.00 | 0.00 | 17 | 1017.9 |
| 20260503015403 | 20 | 298 | 1.6 | 6.4 | 0.00 | 0.00 | 0.00 | 17 | 1017.9 |
| 20260503014503 | 21 | 0 | 0.0 | 0.0 | 0.00 | 0.00 | 0.00 | 17 | 1017.9 |
| 20260503013624 | 21 | 283 | 0.0 | 6.4 | 0.00 | 0.00 | 0.00 | 17 | 1017.9 |
| 20260503012703 | 21 | 304 | 1.6 | 11.3 | 0.00 | 0.00 | 0.00 | 16 | 1017.9 |
| 20260503011803 | 22 | 322 | 3.2 | 11.3 | 0.00 | 0.00 | 0.00 | 16 | 1017.9 |
| 20260503010903 | 22 | 360 | 1.6 | 9.7 | 0.00 | 0.00 | 0.00 | 15 | 1017.9 |
| 20260503010003 | 22 | 337 | 3.2 | 16.1 | 0.00 | 0.00 | 0.00 | 15 | 1017.9 |
| 20260503005403 | 22 | 286 | 1.6 | 16.1 | 0.00 | 0.00 | 0.00 | 15 | 1017.9 |
| 20260503004503 | 22 | 302 | 1.6 | 14.5 | 0.00 | 0.00 | 0.00 | 15 | 1017.9 |
| 20260503003603 | 23 | 339 | 1.6 | 11.3 | 0.00 | 0.00 | 0.00 | 14 | 1017.9 |
| 20260503002703 | 24 | 350 | 3.2 | 12.9 | 0.00 | 0.00 | 0.00 | 14 | 1017.9 |
| 20260503001803 | 23 | 309 | 3.2 | 12.9 | 0.00 | 0.00 | 0.00 | 14 | 1017.9 |
| 20260503000903 | 24 | 356 | 4.8 | 17.7 | 0.00 | 0.00 | 0.00 | 14 | 1017.9 |
| 20260503000003 | 24 | 360 | 3.2 | 19.3 | 0.00 | 0.00 | 0.00 | 14 | 1017.9 |
| 20260502235403 | 24 | 1 | 4.8 | 19.3 | 0.00 | 0.00 | 0.00 | 15 | 1017.9 |
| 20260502234503 | 23 | 326 | 4.8 | 19.3 | 0.00 | 0.00 | 0.00 | 15 | 1017.9 |
| 20260502233624 | 24 | 337 | 4.8 | 19.3 | 0.00 | 0.00 | 0.00 | 14 | 1017.9 |
| 20260502232703 | 24 | 310 | 4.8 | 19.3 | 0.00 | 0.00 | 0.00 | 13 | 1017.9 |
| 20260502231803 | 24 | 353 | 3.2 | 17.7 | 0.00 | 0.00 | 0.00 | 13 | 1017.9 |
| 20260502230903 | 24 | 22 | 1.6 | 17.7 | 0.00 | 0.00 | 0.00 | 14 | 1017.9 |
| 20260502230024 | 24 | 359 | 4.8 | 20.9 | 0.00 | 0.00 | 0.00 | 14 | 1017.9 |
| 20260502225403 | 24 | 12 | 8.0 | 20.9 | 0.00 | 0.00 | 0.00 | 14 | 1017.9 |
| 20260502224503 | 24 | 12 | 8.0 | 19.3 | 0.00 | 0.00 | 0.00 | 14 | 1017.9 |
| 20260502223603 | 23 | 14 | 6.4 | 17.7 | 0.00 | 0.00 | 0.00 | 15 | 1017.9 |
| 20260502222703 | 23 | 11 | 6.4 | 19.3 | 0.00 | 0.00 | 0.00 | 15 | 1017.9 |
| 20260502221803 | 23 | 22 | 6.4 | 16.1 | 0.00 | 0.00 | 0.00 | 15 | 1017.9 |
| 20260502220903 | 23 | 19 | 3.2 | 14.5 | 0.00 | 0.00 | 0.00 | 14 | 1017.9 |
| 20260502220024 | 23 | 18 | 4.8 | 20.9 | 0.00 | 0.00 | 0.00 | 15 | 1017.9 |
| 20260502215403 | 23 | 16 | 6.4 | 20.9 | 0.00 | 0.00 | 0.00 | 14 | 1017.9 |